Concord, NH

5:10 AM EST on February 12, 2016 (GMT -0500)
Concord Municipal

Weather History for KCON - May, 2014

Change the Weather History Date:

Monday, May 19, 2014

  Actual Average Record
Temperature  
Mean Temperature 53 °F 57 °F  
Max Temperature 67 °F 70 °F 97 °F (1962)
Min Temperature 38 °F 44 °F 28 °F (1951)
Degree Days  
Heating Degree Days 12 9  
Month to date heating degree days 172 217  
Since 1 July heating degree days 7474 7064  
Cooling Degree Days 0 1  
Month to date cooling degree days 2 2  
Year to date cooling degree days 2 4  
Growing Degree Days 2 (Base 50)    
Moisture  
Dew Point 38 °F    
Average Humidity 62    
Maximum Humidity 93    
Minimum Humidity 30    
Precipitation  
Precipitation 0.03 in 0.12 in 1.26 in (1999)
Month to date precipitation 1.80 2.15  
Year to date precipitation 15.97 14.15  
Snow  
Snow 0.00 in 0.00 in 0.00 in (2002)
Month to date snowfall 0.0 0.2  
Since 1 July snowfall 80.4 61.6  
Snow Depth 0.00 in    
Sea Level Pressure  
Sea Level Pressure 30.06 in    
Wind  
Wind Speed 8 mph (NNW)    
Max Wind Speed 25 mph    
Max Gust Speed 36 mph    
Visibility 10 miles    
Events Rain    
T = Trace of Precipitation, MM = Missing Value Source: NWS Daily Summary

Daily Weather History Graph

Daily Weather History Graph

Search for Another Location

Airport or City:

Trip Planner

Search our weather history database for the weather conditions in past years. The results will help you decide how hot, cold, wet, or windy it might be!

Date:

Astronomy

May. 19, 2014 Rise Set
Actual Time 5:18 AM EDT 8:07 PM EDT
Civil Twilight 4:45 AM EDT 8:40 PM EDT
Nautical Twilight 4:03 AM EDT 9:22 PM EDT
Astronomical Twilight 3:14 AM EDT 10:11 PM EDT
Moon No Moon Rise 10:14 AM EDT (5/19)
Length of Visible Light 15h 55m
Length of Day
14h 48m
Waning Gibbous, 71% of the Moon is Illuminated
May 19
Waning Gibbous
May 21
Last Quarter
May 28
New
Jun 5
First Quarter
Jun 13
Full

Hourly Weather History & Observations

Time (EDT) Temp. Windchill Dew Point Humidity Pressure Visibility Wind Dir Wind Speed Gust Speed Precip Events Conditions
12:51 AM 48.9 °F - 33.1 °F 54% 30.08 in 10.0 mi NW 5.8 mph - N/A   Clear
1:51 AM 48.0 °F - 33.1 °F 56% 30.08 in 10.0 mi NW 4.6 mph - N/A   Clear
2:51 AM 46.9 °F - 33.1 °F 59% 30.08 in 10.0 mi NNW 5.8 mph - N/A   Clear
3:51 AM 44.1 °F 42.5 °F 34.0 °F 68% 30.08 in 10.0 mi North 3.5 mph - N/A   Clear
4:51 AM 44.1 °F 42.5 °F 33.1 °F 65% 30.08 in 10.0 mi NW 3.5 mph - N/A   Clear
5:51 AM 37.9 °F - 34.0 °F 86% 30.10 in 10.0 mi Calm Calm - N/A   Clear
6:51 AM 48.9 °F - 35.1 °F 59% 30.10 in 10.0 mi NW 5.8 mph - N/A   Clear
7:51 AM 53.1 °F - 33.1 °F 47% 30.10 in 10.0 mi NNW 9.2 mph - N/A   Clear
10:51 AM 63.0 °F - 33.1 °F 33% 30.05 in 10.0 mi NNW 17.3 mph 26.5 mph N/A   Scattered Clouds
11:51 AM 62.1 °F - 30.9 °F 31% 30.04 in 10.0 mi NNW 10.4 mph 26.5 mph N/A   Mostly Cloudy
12:51 PM 64.0 °F - 32.0 °F 30% 30.04 in 10.0 mi NNW 16.1 mph 23.0 mph N/A   Mostly Cloudy
1:51 PM 63.0 °F - 34.0 °F 34% 30.04 in 10.0 mi NW 18.4 mph 32.2 mph N/A   Overcast
2:51 PM 59.0 °F - 36.0 °F 42% 30.05 in 10.0 mi NW 19.6 mph 26.5 mph N/A   Overcast
3:51 PM 59.0 °F - 41.0 °F 51% 30.05 in 10.0 mi NNW 10.4 mph - 0.00 in   Overcast
4:51 PM 59.0 °F - 39.2 °F 48% 30.05 in 10.0 mi North 9.2 mph 18.4 mph N/A   Overcast
5:51 PM 57.0 °F - 41.0 °F 55% 30.06 in 10.0 mi North 10.4 mph - 0.00 in Rain Light Rain
6:51 PM 54.0 °F - 44.1 °F 69% 30.07 in 10.0 mi North 8.1 mph - 0.00 in Rain Light Rain
7:51 PM 51.1 °F - 45.0 °F 80% 30.06 in 10.0 mi NNW 8.1 mph - 0.02 in Rain Light Rain
8:51 PM 51.1 °F - 46.0 °F 83% 30.05 in 9.0 mi Calm Calm - 0.00 in Rain Light Rain
9:51 PM 50.0 °F - 48.0 °F 93% 30.05 in 10.0 mi Calm Calm - 0.01 in Rain Light Rain
10:51 PM 50.0 °F - 48.0 °F 93% 30.04 in 10.0 mi Calm Calm - 0.00 in Rain Light Rain
11:51 PM 50.0 °F - 48.0 °F 93% 30.03 in 10.0 mi WNW 5.8 mph - 0.00 in   Overcast